Regional Weather Roundup
Issued by NWS

Home | Current Version | Previous Version | Text Only | Print | Product List | Glossary Off
Versions: 1 2 3 4 5 6 7 8 9 10 11 12 13 14 15 16 17 18 19 20 21 22 23 24 25 26 27 28 29 30 31 32 33 34 35 36 37 38 39 40 41 42 43 44 45 46 47 48 49 50

752
ASUS43 KLSX 071610
RWRMO

WEATHER SUMMARY FOR MISSOURI
NATIONAL WEATHER SERVICE SPRINGFIELD MO
1000 AM CST WED DEC 07 2016

NOTE: "FAIR" INDICATES FEW OR NO CLOUDS BELOW 12,000 FEET WITH NO
       SIGNIFICANT WEATHER AND/OR OBSTRUCTIONS TO VISIBILITY.
       CURRENT SKY AND/OR WEATHER CONDITIONS ARE NOT AVAILABLE FOR
       CHILLICOTHE AND FARMINGTON.

MOZ001>031-035>038-043-044-053-054-071700-
...NORTHERN AND WESTERN MISSOURI...

CITY           SKY/WX    TMP DP  RH WIND       PRES   REMARKS
KANSAS CTY INT CLOUDY    27  13  55 N8        30.29R WCI  19
KANSAS C DTWN  CLOUDY    30  13  49 N7        30.30R WCI  23
LEE`S SUMMIT   CLOUDY    30  13  49 N9        30.28R WCI  22
ST JOSEPH      CLOUDY    26  12  55 N12       30.31R WCI  16
CHILLICOTHE      N/A     28  14  55 NW9       30.28R WCI  19
KIRKSVILLE     MOSUNNY   28  14  55 NW5       30.24R WCI  23

$$
MOZ066>068-077>081-088>096-101>105-071700-
...SOUTHWEST MISSOURI...

CITY           SKY/WX    TMP DP  RH WIND       PRES   REMARKS
SPRINGFIELD    CLOUDY    36  12  37 E10       30.22R WCI  28
JOPLIN         CLOUDY    34  15  46 NE6       30.25R WCI  29
BRANSON        CLOUDY    32  18  55 E9        30.21F WCI  24

$$
MOZ032>034-039>042-045>050-055>058-069>072-071700-
...CENTRAL MISSOURI...

CITY           SKY/WX    TMP DP  RH WIND       PRES   REMARKS
COLUMBIA       CLOUDY    32  15  49 NW6       30.25R WCI  26
JEFFERSON CITY CLOUDY    34  17  50 W3        30.27R
ROLLA          CLOUDY    33  17  51 CALM      30.22R
SEDALIA        CLOUDY    33  14  45 NW5       30.28R WCI  29
WHITEMAN AFB   PTSUNNY   32  13  44 NW7       30.26R WCI  26
WARRENSBURG    PTSUNNY   32  12  43 N5        30.28R WCI  27
OSAGE BEACH    CLOUDY    32  19  58 CALM      30.26R

$$
MOZ051-052-059>065-071700-
...EAST CENTRAL MISSOURI...

CITY           SKY/WX    TMP DP  RH WIND       PRES   REMARKS
ST LOUIS INTL  CLOUDY    36  17  46 W3        30.24R
SPIRIT OF STL  CLOUDY    34  20  56 W3        30.25R
ST CHARLES     CLOUDY    33  20  58 W5        30.25R WCI  29

$$
MOZ072>076-082>087-097>100-106>115-071700-
...SOUTH CENTRAL AND SOUTHEAST MISSOURI...

CITY           SKY/WX    TMP DP  RH WIND       PRES   REMARKS
CAPE GIRARDEAU SUNNY     38  22  52 NE8       30.24S
FARMINGTON     CLOUDY    34  13  41 NE3       30.22R
POPLAR BLUFF   MOSUNNY   39  23  52 NE10      30.24S
WEST PLAINS    CLOUDY    32  19  58 NE5       30.24R WCI  27

$$




USA.gov is the U.S. government's official web portal to all federal, state and local government web resources and services.